Рангкуль

Таджикистан     38°28′34″N   74°14′51″E
темп.,
°C
ветер,
м/с
пор.,
м/с
влажн.,
%
обл.,
%
осадки,
мм/ч
давл.,
гПа
погр.,
м
22 апреля, чт
чт2223:00−9ссз336289 0.1 1014189
02:00−10ссз117272 0.0 1015106
05:00−13ссз227629 0.0 102176
08:00−11ссз336844 0.0 1021405
11:00−7ссз465287 0.1 10181532
14:00−6ссз69230 0.1 10171877
17:00−8ссз69273 0.1 10211177
20:00−15ссз43330 0.0 1034201
23 апреля, пт
пт2323:00−17ссз33320 0.0 1040132
02:00−18ссз22360 0.0 1041104
05:00−19ссз21420 0.0 104479
08:00−15сз11360 0.0 1039283
11:00−10зсз12250 0.0 1029696
14:00−6ссз13220 0.0 10241145
17:00−7с33250 0.0 1025605
20:00−13ссз22310 0.0 103578
24 апреля, сб
сб2423:00−15ссз22340 0.0 104079
02:00−16ссз21335 0.0 104172
05:00−17с11360 0.0 104371
08:00−13сз11342 0.0 1038277
11:00−7з12271 0.0 1029591
14:00−3з12262 0.0 1025775
17:00−3зюз122659 0.0 1024864
20:00−7ссв1137100 0.0 102960
25 апреля, вс
вс2523:00−10ссз224988 0.0 103462
02:00−12с215336 0.0 103769
05:00−13ссз115529 0.0 103966
08:00−9ссз114728 0.0 1034269
11:00−4сз01375 0.0 1029552
14:000ссз113246 0.0 1024927
17:00−1с213316 0.0 1025711
20:00−6с224131 0.0 103179
26 апреля, пн
пн2623:00−9с22443 0.0 103568
02:00−11с224510 0.0 103664
05:00−12с11475 0.0 103858
08:00−8ссз11440 0.0 1034240
11:00−2сз01390 0.0 1028572
14:00+1с11335 0.0 10241015
17:00+1с21305 0.0 1024697
20:00−5с22385 0.0 103082